Location: Newark
(45.9456°N, 15.4064°E)
Time: 01:56:01
(UTC+00:00)

Vanguard 2 - Pass Details

Date: 02 February 2020
Orbit: 552 x 2939 km, 32.9° (Epoch: 16 February)

Event Time Altitude Azimuth Distance (km) Brightness Sun altitude
Rises 05:15:33 0° 203° (SSW) 6,663 12.2 -11.5°
Reaches altitude 10° 05:21:18 10° 191° (SSW) 5,750 12.0 -10.5°
Maximum altitude 05:33:42 24° 147° (SSE) 4,524 12.1 -8.4°
Drops below altitude 10° 05:44:41 10° 102° (ESE) 5,078 13.5 -6.6°
Sets 05:49:14 0° 89° (E) 5,756 13.6 -5.9°
